Location: �perlecques
(50.8057°N, 2.1521°E)
Time: 19:31:35
(UTC+00:00)

Tiros 1 - Pass Details

Date: 12 August 2021
Orbit: 630 x 663 km, 48.4° (Epoch: 28 September)

Event Time Altitude Azimuth Distance (km) Brightness Sun altitude
Rises 19:22:53 0° 280° (W) 2,990 12.4 -1.6°
Reaches altitude 10° 19:25:39 10° 266° (W) 2,070 10.9 -2.0°
Maximum altitude 19:29:20 23° 215° (SW) 1,400 9.0 -2.5°
Drops below altitude 10° 19:33:00 10° 164° (SSE) 2,047 9.3 -3.1°
Sets 19:35:43 0° 149° (SSE) 2,948 10.0 -3.4°
